Regional Weather Roundup
Issued by NWS

Home | Current Version | Previous Version | Text Only | Print | Product List | Glossary Off
Versions: 1 2 3 4 5 6 7 8 9 10 11 12 13 14 15 16 17 18 19 20 21 22 23 24 25 26 27

000
ASUS43 KDMX 251807
RWRIA

WEATHER ROUNDUP FOR IOWA
NATIONAL WEATHER SERVICE DES MOINES IA
100 PM CDT SAT OCT 25 2014

NOTE: "FAIR" INDICATES FEW OR NO CLOUDS BELOW 12,000 FEET WITH NO
SIGNIFICANT WEATHER AND/OR OBSTRUCTIONS TO VISIBILITY.

* - THESE STATIONS ARE NOT NWS STATIONS...THUS NOT UNDER NWS
QUALITY CONTROL.  THEY ALSO DO NOT REPORT WEATHER SUCH
AS PRECIPITATION OR FOG.

IAZ001>003-012>014-020>022-031>034-043>046-251900-
   NORTHWEST IOWA

CITY           SKY/WX    TMP DP  RH WIND       PRES   REMARKS
CARROLL *      SUNNY     68  37  32 VRB5G16   30.11F
CHEROKEE *     SUNNY     65  40  39 NE6       30.13F
DENISON *      SUNNY     66  39  37 N10       30.10S
LE MARS *      SUNNY     66  36  32 NE7       30.14F
ORANGE CITY *  SUNNY     66  30  26 NE7       30.14S
SHELDON *      SUNNY     66  34  30 N10       30.12F
SIOUX CITY     SUNNY     68  36  30 NE6       30.13F
6HR MIN TEMP:  42; 6HR MAX TEMP:  68;

SPENCER        SUNNY     65  34  31 N15       30.13F
6HR MIN TEMP:  40; 6HR MAX TEMP:  65;

STORM LAKE *   SUNNY     64  34  32 NE8       30.13F
$$

IAZ055>058-069>071-079>083-090>094-251900-
   SOUTHWEST IOWA

CITY           SKY/WX    TMP DP  RH WIND       PRES   REMARKS
AUDUBON *      SUNNY     70  30  23 NE8       30.12S
CLARINDA *     SUNNY     73  43  33 VRB6      30.10F
COUNCIL BLFS * SUNNY     70  43  37 NE6       30.10F
CRESTON *      SUNNY     70  39  32 VRB7      30.10F
HARLAN  *      SUNNY     70  37  30 VRB7      30.14F
LAMONI         SUNNY     71  46  40 NE8       30.09F
6HR MIN TEMP:  51; 6HR MAX TEMP:  71;

RED OAK *      SUNNY     72  43  35 NE10      30.10S
SHENANDOAH *   SUNNY     72  46  40 E5        30.10F
$$

IAZ047>049-059>061-072>074-084-251900-
   CENTRAL IOWA

CITY           SKY/WX    TMP DP  RH WIND       PRES   REMARKS
AMES           SUNNY     67  38  34 N9        30.10F
6HR MIN TEMP:  47; 6HR MAX TEMP:  67;

ANKENY *       SUNNY     68  41  37 NE9       30.09F
CHARITON *     SUNNY     70  41  35 VRB6G12   30.08F
DES MOINES     MOSUNNY   70  39  32 NE9       30.09F
6HR MIN TEMP:  49; 6HR MAX TEMP:  70;

GRINNELL*      SUNNY     68  35  30 N8        30.09F
KNOXVILLE *    SUNNY     68  41  37 N7        30.08S
MARSHALLTOWN   SUNNY     67  37  33 NW12      30.09S
6HR MIN TEMP:  44; 6HR MAX TEMP:  67;

PELLA *        SUNNY     70  41  34 N9        30.10S
PERRY *          N/A     68  36  30 N8        30.10F
$$

IAZ004>006-015-016-023>025-035-036-251900-
   NORTH CENTRAL IOWA

CITY           SKY/WX    TMP DP  RH WIND       PRES   REMARKS
ALGONA *       SUNNY     64  32  29 N15G21    30.12F
CLARION *      SUNNY     64  34  32 N15       30.11S
ESTHERVILLE    SUNNY     64  31  28 NW14      30.12
6HR MIN TEMP:  45; 6HR MAX TEMP:  64;

FORT DODGE *   SUNNY     66  37  34 N5        30.12F
MASON CITY     SUNNY     63  34  33 NW16      30.11S
6HR MIN TEMP:  47; 6HR MAX TEMP:  64;

FOREST CITY *  SUNNY     63  36  36 N15G21    30.10F
IOWA FALLS *     N/A     66  36  32 N12G21    30.11S
$$

IAZ007>011-017>019-026>030-037>042-050>054-066-251900-
   NORTHEAST IOWA

CITY           SKY/WX    TMP DP  RH WIND       PRES   REMARKS
CEDAR RAPIDS   SUNNY     66  41  40 N12       30.06F
6HR MIN TEMP:  46; 6HR MAX TEMP:  66;

CHARLES CITY * SUNNY     64  32  29 NW16G24   30.08F
CLINTON *      SUNNY     70  37  30 NW12G17   30.04F
DECORAH *      SUNNY     64  32  29 NW16      30.03F
DUBUQUE        SUNNY     65  36  34 N12       30.03F
6HR MIN TEMP:  52; 6HR MAX TEMP:  65;

MONTICELLO *   SUNNY     68  37  32 NW13      30.04F
OELWEIN *      SUNNY     63  37  39 NW18      30.07F
WATERLOO       SUNNY     65  38  36 NW15      30.07F
6HR MIN TEMP:  44; 6HR MAX TEMP:  65;

$$

IAZ064-065-067-068-078-251900-
   EAST CENTRAL IOWA

CITY           SKY/WX    TMP DP  RH WIND       PRES   REMARKS
DAVENPORT      SUNNY     70  35  27 N13       30.03F
6HR MIN TEMP:  50; 6HR MAX TEMP:  71;

IOWA CITY      SUNNY     68  41  37 NW10G16   30.07F
6HR MIN TEMP:  51; 6HR MAX TEMP:  68; 6HR PCP: TRACE;

MT. PLEASANT * SUNNY     70  39  32 NW9       30.06F
MUSCATINE *    SUNNY     70  37  30 N12       30.05F
QUAD CITIES    SUNNY     70  39  32 N8        30.02F
6HR MIN TEMP:  51; 6HR MAX TEMP:  70;

$$

IAZ062-063-075>077-085>089-095>099-251900-
   SOUTHEAST IOWA

CITY           SKY/WX    TMP DP  RH WIND       PRES   REMARKS
BURLINGTON     SUNNY     71  44  37 N7        30.04F
6HR MIN TEMP:  48; 6HR MAX TEMP:  71;

FAIRFIELD *    SUNNY     70  39  32 N9        30.07S
FORT MADISON * SUNNY     75  43  31 N6        30.06S
KEOKUK *       SUNNY     73  48  40 VRB3      30.05S
OSKALOOSA *      N/A     71  37  29 N9        30.07F
CENTERVILLE *  SUNNY     72  43  35 NE6       30.10S
OTTUMWA        MOSUNNY   71  44  37 N6        30.07S
6HR MIN TEMP:  47; 6HR MAX TEMP:  71;

WASHINGTON *   SUNNY     70  41  35 N10G18    30.06F
$$

ABBREVIATIONS USED IN REMARKS
   TC - TEMPERATURES IN CELSIUS
  WCI - WIND CHILL INDEX
   HX - HEAT INDEX
  VSB - VISIBILITY
$$




USA.gov is the U.S. government's official web portal to all federal, state and local government web resources and services.